Time,TemperatureF,DewpointF,PressureIn,WindDirection,WindDirectionDegrees,WindSpeedMPH,WindSpeedGustMPH,Humidity,HourlyPrecipIn,Conditions,Clouds,dailyrainin,SolarRadiationWatts/m^2,SoftwareType,DateUTC
2013-02-08 00:11:00,49.0,43.0,-100.00,West,263,3.0,8.0,81,0.00,,,0.00,0.000000,,2013-02-08 08:11:00,
2013-02-08 00:21:00,49.0,43.0,-100.00,West,263,3.0,8.0,81,0.00,,,0.00,0.000000,,2013-02-08 08:21:00,
2013-02-08 00:32:00,49.0,43.0,-100.00,West,263,3.0,8.0,81,0.00,,,0.00,0.000000,,2013-02-08 08:32:00,
2013-02-08 00:41:00,49.0,43.0,-100.00,West,263,3.0,8.0,81,0.00,,,0.00,0.000000,,2013-02-08 08:41:00,
2013-02-08 00:51:00,49.0,43.0,-100.00,South,182,5.0,8.0,81,0.00,,,0.00,0.000000,,2013-02-08 08:51:00,
2013-02-08 01:21:00,49.0,43.0,-100.00,South,182,5.0,8.0,81,0.00,,,0.00,0.000000,,2013-02-08 09:21:00,
2013-02-08 01:31:00,49.0,43.0,-100.00,South,182,5.0,8.0,81,0.00,,,0.00,0.000000,,2013-02-08 09:31:00,
2013-02-08 01:42:00,49.0,43.0,-100.00,South,182,5.0,8.0,81,0.00,,,0.00,0.000000,,2013-02-08 09:42:00,
2013-02-08 01:51:00,48.0,45.0,-100.00,WSW,245,7.0,12.0,91,0.01,,,0.01,0.000000,,2013-02-08 09:51:00,
2013-02-08 02:22:00,48.0,45.0,-100.00,WSW,245,7.0,12.0,91,0.01,,,0.01,0.000000,,2013-02-08 10:22:00,
2013-02-08 02:31:00,48.0,45.0,-100.00,WSW,245,7.0,12.0,91,0.01,,,0.01,0.000000,,2013-02-08 10:31:00,
2013-02-08 02:41:00,48.0,45.0,-100.00,WSW,245,7.0,12.0,91,0.01,,,0.01,0.000000,,2013-02-08 10:41:00,
2013-02-08 02:51:00,47.0,40.0,-100.00,West,267,14.0,20.0,76,0.00,,,0.01,0.000000,,2013-02-08 10:51:00,
2013-02-08 03:21:00,47.0,40.0,-100.00,West,267,14.0,20.0,76,0.00,,,0.01,0.000000,,2013-02-08 11:21:00,
2013-02-08 03:32:00,47.0,40.0,-100.00,West,267,14.0,20.0,76,0.00,,,0.01,0.000000,,2013-02-08 11:32:00,
2013-02-08 03:41:00,47.0,40.0,-100.00,West,267,14.0,20.0,76,0.00,,,0.01,0.000000,,2013-02-08 11:41:00,
2013-02-08 03:51:00,47.0,40.0,-100.00,WNW,287,5.0,15.0,76,0.00,,,0.01,0.000000,,2013-02-08 11:51:00,
2013-02-08 04:11:00,47.0,40.0,-100.00,WNW,287,5.0,15.0,76,0.00,,,0.01,0.000000,,2013-02-08 12:11:00,
2013-02-08 04:22:00,47.0,40.0,-100.00,WNW,287,5.0,15.0,76,0.00,,,0.01,0.000000,,2013-02-08 12:22:00,
2013-02-08 04:32:00,47.0,40.0,-100.00,WNW,287,5.0,15.0,76,0.00,,,0.01,0.000000,,2013-02-08 12:32:00,
2013-02-08 04:42:00,47.0,40.0,-100.00,WNW,287,5.0,15.0,76,0.00,,,0.01,0.000000,,2013-02-08 12:42:00,
2013-02-08 04:51:00,45.0,41.0,-100.00,West,276,9.0,13.0,87,0.03,,,0.04,0.000000,,2013-02-08 12:51:00,
2013-02-08 05:11:00,45.0,41.0,-100.00,West,276,9.0,13.0,87,0.03,,,0.04,0.000000,,2013-02-08 13:11:00,
2013-02-08 05:21:00,45.0,41.0,-100.00,West,276,9.0,13.0,87,0.03,,,0.04,0.000000,,2013-02-08 13:21:00,
2013-02-08 05:32:00,45.0,41.0,-100.00,West,276,9.0,13.0,87,0.03,,,0.04,0.000000,,2013-02-08 13:32:00,
2013-02-08 05:42:00,45.0,41.0,-100.00,West,276,9.0,13.0,87,0.03,,,0.04,0.000000,,2013-02-08 13:42:00,
2013-02-08 05:51:00,45.0,41.0,-100.00,WSW,238,4.0,12.0,86,0.01,,,0.05,0.000000,,2013-02-08 13:51:00,
2013-02-08 06:11:00,45.0,41.0,-100.00,WSW,238,4.0,12.0,86,0.01,,,0.05,0.000000,,2013-02-08 14:11:00,
2013-02-08 06:21:00,45.0,41.0,-100.00,WSW,238,4.0,12.0,86,0.01,,,0.05,0.000000,,2013-02-08 14:21:00,
2013-02-08 06:32:00,45.0,41.0,-100.00,WSW,238,4.0,12.0,86,0.01,,,0.05,0.000000,,2013-02-08 14:32:00,
2013-02-08 06:41:00,45.0,41.0,-100.00,WSW,238,4.0,12.0,86,0.01,,,0.05,0.000000,,2013-02-08 14:41:00,
2013-02-08 06:51:00,43.0,40.0,-100.00,East,95,2.0,9.0,90,0.00,,,0.05,1.000000,,2013-02-08 14:51:00,
2013-02-08 07:11:00,43.0,40.0,-100.00,East,95,2.0,9.0,90,0.00,,,0.05,1.000000,,2013-02-08 15:11:00,
2013-02-08 07:21:00,43.0,40.0,-100.00,East,95,2.0,9.0,90,0.00,,,0.05,1.000000,,2013-02-08 15:21:00,
2013-02-08 07:32:00,43.0,40.0,-100.00,East,95,2.0,9.0,90,0.00,,,0.05,1.000000,,2013-02-08 15:32:00,
2013-02-08 07:41:00,43.0,40.0,-100.00,East,95,2.0,9.0,90,0.00,,,0.05,1.000000,,2013-02-08 15:41:00,
2013-02-08 07:51:00,45.0,43.0,-100.00,South,185,2.0,14.0,92,0.03,,,0.08,42.000000,,2013-02-08 15:51:00,
2013-02-08 08:21:00,45.0,43.0,-100.00,South,185,2.0,14.0,92,0.03,,,0.08,42.000000,,2013-02-08 16:21:00,
2013-02-08 08:32:00,45.0,43.0,-100.00,South,185,2.0,14.0,92,0.03,,,0.08,42.000000,,2013-02-08 16:32:00,
2013-02-08 08:41:00,45.0,43.0,-100.00,South,185,2.0,14.0,92,0.03,,,0.08,42.000000,,2013-02-08 16:41:00,
2013-02-08 08:51:00,46.0,44.0,-100.00,SE,142,3.0,20.0,93,0.04,,,0.12,94.000000,,2013-02-08 16:51:00,
2013-02-08 09:12:00,46.0,44.0,-100.00,SE,142,3.0,20.0,93,0.04,,,0.12,94.000000,,2013-02-08 17:12:00,
2013-02-08 09:22:00,46.0,44.0,-100.00,SE,142,3.0,20.0,93,0.04,,,0.12,94.000000,,2013-02-08 17:22:00,
2013-02-08 09:32:00,46.0,44.0,-100.00,SE,142,3.0,20.0,93,0.04,,,0.12,94.000000,,2013-02-08 17:32:00,
2013-02-08 09:42:00,46.0,44.0,-100.00,SE,142,3.0,20.0,93,0.04,,,0.12,94.000000,,2013-02-08 17:42:00,
2013-02-08 09:51:00,46.0,44.0,-100.00,SE,136,4.0,7.0,92,0.02,,,0.14,106.000000,,2013-02-08 17:51:00,
2013-02-08 10:12:00,46.0,44.0,-100.00,SE,136,4.0,7.0,92,0.02,,,0.14,106.000000,,2013-02-08 18:12:00,
2013-02-08 10:23:00,46.0,44.0,-100.00,SE,136,4.0,7.0,92,0.02,,,0.14,106.000000,,2013-02-08 18:23:00,
2013-02-08 10:33:00,46.0,44.0,-100.00,SE,136,4.0,7.0,92,0.02,,,0.14,106.000000,,2013-02-08 18:33:00,
2013-02-08 10:42:00,46.0,44.0,-100.00,SE,136,4.0,7.0,92,0.02,,,0.14,106.000000,,2013-02-08 18:42:00,
2013-02-08 10:51:00,49.0,41.0,-100.00,SW,232,7.0,15.0,73,0.00,,,0.14,302.000000,,2013-02-08 18:51:00,
2013-02-08 11:22:00,49.0,41.0,-100.00,SW,232,7.0,15.0,73,0.00,,,0.14,302.000000,,2013-02-08 19:22:00,
2013-02-08 11:32:00,49.0,41.0,-100.00,SW,232,7.0,15.0,73,0.00,,,0.14,302.000000,,2013-02-08 19:32:00,
2013-02-08 11:42:00,49.0,41.0,-100.00,SW,232,7.0,15.0,73,0.00,,,0.14,302.000000,,2013-02-08 19:42:00,
2013-02-08 11:51:00,48.0,41.0,-100.00,West,268,16.0,26.0,76,0.00,,,0.14,282.000000,,2013-02-08 19:51:00,
2013-02-08 12:11:00,48.0,41.0,-100.00,West,268,16.0,26.0,76,0.00,,,0.14,282.000000,,2013-02-08 20:11:00,
2013-02-08 12:21:00,48.0,41.0,-100.00,West,268,16.0,26.0,76,0.00,,,0.14,282.000000,,2013-02-08 20:21:00,
2013-02-08 12:31:00,48.0,41.0,-100.00,West,268,16.0,26.0,76,0.00,,,0.14,282.000000,,2013-02-08 20:31:00,
2013-02-08 12:41:00,48.0,41.0,-100.00,West,268,16.0,26.0,76,0.00,,,0.14,282.000000,,2013-02-08 20:41:00,
2013-02-08 12:51:00,47.0,44.0,-100.00,East,89,7.0,29.0,88,0.04,,,0.18,351.000000,,2013-02-08 20:51:00,
2013-02-08 13:11:00,47.0,44.0,-100.00,East,89,7.0,29.0,88,0.04,,,0.18,351.000000,,2013-02-08 21:11:00,
2013-02-08 13:21:00,47.0,44.0,-100.00,East,89,7.0,29.0,88,0.04,,,0.18,351.000000,,2013-02-08 21:21:00,
2013-02-08 13:32:00,47.0,44.0,-100.00,East,89,7.0,29.0,88,0.04,,,0.18,351.000000,,2013-02-08 21:32:00,
2013-02-08 13:41:00,47.0,44.0,-100.00,East,89,7.0,29.0,88,0.04,,,0.18,351.000000,,2013-02-08 21:41:00,
2013-02-08 13:51:00,47.0,43.0,-100.00,WSW,247,11.0,17.0,85,0.00,,,0.18,179.000000,,2013-02-08 21:51:00,
2013-02-08 14:11:00,47.0,43.0,-100.00,WSW,247,11.0,17.0,85,0.00,,,0.18,179.000000,,2013-02-08 22:11:00,
2013-02-08 14:21:00,47.0,43.0,-100.00,WSW,247,11.0,17.0,85,0.00,,,0.18,179.000000,,2013-02-08 22:21:00,
2013-02-08 14:31:00,47.0,43.0,-100.00,WSW,247,11.0,17.0,85,0.00,,,0.18,179.000000,,2013-02-08 22:31:00,
2013-02-08 14:41:00,47.0,43.0,-100.00,WSW,247,11.0,17.0,85,0.00,,,0.18,179.000000,,2013-02-08 22:41:00,
2013-02-08 14:51:00,49.0,40.0,-100.00,West,273,18.0,27.0,71,0.00,,,0.18,220.000000,,2013-02-08 22:51:00,
2013-02-08 15:11:00,49.0,40.0,-100.00,West,273,18.0,27.0,71,0.00,,,0.18,220.000000,,2013-02-08 23:11:00,
2013-02-08 15:21:00,49.0,40.0,-100.00,West,273,18.0,27.0,71,0.00,,,0.18,220.000000,,2013-02-08 23:21:00,
2013-02-08 15:31:00,49.0,40.0,-100.00,West,273,18.0,27.0,71,0.00,,,0.18,220.000000,,2013-02-08 23:31:00,
2013-02-08 15:41:00,49.0,40.0,-100.00,West,273,18.0,27.0,71,0.00,,,0.18,220.000000,,2013-02-08 23:41:00,
2013-02-08 15:51:00,48.0,41.0,-100.00,WNW,283,19.0,27.0,76,0.01,,,0.19,248.000000,,2013-02-08 23:51:00,
2013-02-08 16:11:00,48.0,41.0,-100.00,WNW,283,19.0,27.0,76,0.01,,,0.19,248.000000,,2013-02-09 00:11:00,
2013-02-08 16:21:00,48.0,41.0,-100.00,WNW,283,19.0,27.0,76,0.01,,,0.19,248.000000,,2013-02-09 00:21:00,
2013-02-08 16:32:00,48.0,41.0,-100.00,WNW,283,19.0,27.0,76,0.01,,,0.19,248.000000,,2013-02-09 00:32:00,
2013-02-08 16:41:00,48.0,41.0,-100.00,WNW,283,19.0,27.0,76,0.01,,,0.19,248.000000,,2013-02-09 00:41:00,
2013-02-08 16:51:00,47.0,38.0,-100.00,West,275,10.0,25.0,72,0.00,,,-99.99,136.000000,,2013-02-09 00:51:00,
2013-02-08 17:11:00,47.0,38.0,-100.00,West,275,10.0,25.0,72,0.00,,,-99.99,136.000000,,2013-02-09 01:11:00,
2013-02-08 17:21:00,47.0,38.0,-100.00,West,275,10.0,25.0,72,0.00,,,-99.99,136.000000,,2013-02-09 01:21:00,
2013-02-08 17:31:00,47.0,38.0,-100.00,West,275,10.0,25.0,72,0.00,,,-99.99,136.000000,,2013-02-09 01:31:00,
2013-02-08 17:41:00,47.0,38.0,-100.00,West,275,10.0,25.0,72,0.00,,,-99.99,136.000000,,2013-02-09 01:41:00,
2013-02-08 17:51:00,44.0,38.0,-100.00,WNW,289,7.0,15.0,78,0.00,,,0.19,19.000000,,2013-02-09 01:51:00,
2013-02-08 18:21:00,44.0,38.0,-100.00,WNW,289,7.0,15.0,78,0.00,,,0.19,19.000000,,2013-02-09 02:21:00,
2013-02-08 18:32:00,44.0,38.0,-100.00,WNW,289,7.0,15.0,78,0.00,,,0.19,19.000000,,2013-02-09 02:32:00,
2013-02-08 18:41:00,44.0,38.0,-100.00,WNW,289,7.0,15.0,78,0.00,,,0.19,19.000000,,2013-02-09 02:41:00,
2013-02-08 18:51:00,42.0,38.0,-100.00,North,8,3.0,18.0,84,0.01,,,0.20,0.000000,,2013-02-09 02:51:00,
2013-02-08 19:11:00,42.0,38.0,-100.00,North,8,3.0,18.0,84,0.01,,,0.20,0.000000,,2013-02-09 03:11:00,
2013-02-08 19:21:00,42.0,38.0,-100.00,North,8,3.0,18.0,84,0.01,,,0.20,0.000000,,2013-02-09 03:21:00,
2013-02-08 19:32:00,42.0,38.0,-100.00,North,8,3.0,18.0,84,0.01,,,0.20,0.000000,,2013-02-09 03:32:00,
2013-02-08 19:41:00,42.0,38.0,-100.00,North,8,3.0,18.0,84,0.01,,,0.20,0.000000,,2013-02-09 03:41:00,
2013-02-08 19:51:00,42.0,40.0,-100.00,NW,315,5.0,8.0,91,0.04,,,0.24,0.000000,,2013-02-09 03:51:00,
2013-02-08 20:22:00,42.0,40.0,-100.00,NW,315,5.0,8.0,91,0.04,,,0.24,0.000000,,2013-02-09 04:22:00,
2013-02-08 20:32:00,42.0,40.0,-100.00,NW,315,5.0,8.0,91,0.04,,,0.24,0.000000,,2013-02-09 04:32:00,
2013-02-08 20:42:00,42.0,40.0,-100.00,NW,315,5.0,8.0,91,0.04,,,0.24,0.000000,,2013-02-09 04:42:00,
2013-02-08 20:51:00,40.0,38.0,-100.00,East,101,4.0,13.0,94,0.01,,,0.25,0.000000,,2013-02-09 04:51:00,
2013-02-08 21:22:00,40.0,38.0,-100.00,East,101,4.0,13.0,94,0.01,,,0.25,0.000000,,2013-02-09 05:22:00,
2013-02-08 21:31:00,40.0,38.0,-100.00,East,101,4.0,13.0,94,0.01,,,0.25,0.000000,,2013-02-09 05:31:00,
2013-02-08 21:41:00,40.0,38.0,-100.00,East,101,4.0,13.0,94,0.01,,,0.25,0.000000,,2013-02-09 05:41:00,
2013-02-08 21:51:00,40.0,39.0,-100.00,East,81,7.0,10.0,96,0.00,,,0.25,0.000000,,2013-02-09 05:51:00,
2013-02-08 22:11:00,40.0,39.0,-100.00,East,81,7.0,10.0,96,0.00,,,0.25,0.000000,,2013-02-09 06:11:00,
2013-02-08 22:21:00,40.0,39.0,-100.00,East,81,7.0,10.0,96,0.00,,,0.25,0.000000,,2013-02-09 06:21:00,
2013-02-08 22:31:00,40.0,39.0,-100.00,East,81,7.0,10.0,96,0.00,,,0.25,0.000000,,2013-02-09 06:31:00,
2013-02-08 22:41:00,40.0,39.0,-100.00,East,81,7.0,10.0,96,0.00,,,0.25,0.000000,,2013-02-09 06:41:00,
2013-02-08 22:51:00,40.0,38.0,-100.00,East,82,6.0,11.0,93,0.00,,,0.25,0.000000,,2013-02-09 06:51:00,
2013-02-08 23:11:00,40.0,38.0,-100.00,East,82,6.0,11.0,93,0.00,,,0.25,0.000000,,2013-02-09 07:11:00,
2013-02-08 23:21:00,40.0,38.0,-100.00,East,82,6.0,11.0,93,0.00,,,0.25,0.000000,,2013-02-09 07:21:00,
2013-02-08 23:31:00,40.0,38.0,-100.00,East,82,6.0,11.0,93,0.00,,,0.25,0.000000,,2013-02-09 07:31:00,
2013-02-08 23:42:00,40.0,38.0,-100.00,East,82,6.0,11.0,93,0.00,,,0.25,0.000000,,2013-02-09 07:42:00,
2013-02-08 23:51:00,40.0,38.0,-100.00,East,79,5.0,7.0,93,0.00,,,0.25,0.000000,,2013-02-09 07:51:00,